sat.trackr.live / text

‹ back to catalog

STARLINK-3046

NORAD 49169 · 2021-082AR

PAYLOAD ACTIVE UNKNOWN

§ Identity

Operator
Country
US
Launch date
2021-09-14
Launch site
AFWTR
Launch vehicle
Mass (kg)
RCS (m²)

Purposes: comms

External: N2YO · Heavens-Above · Gunter

§ Orbital elements

Epoch: 2026-09-19T02:30:58.487040Z

Period
96.11 min
Inclination
69.9993°
Eccentricity
0.0002731
Mean motion
14.98331725 rev/d
Perigee alt
570.2 km
Apogee alt
573.9 km
Semi-major
6,950.2 km
B*
2.8764e-5
RAAN
146.7981°
Arg perigee
271.0818°
Mean anomaly
89.0028°
Rev number
27,544

§ Raw data

STARLINK-30461 49169U 21082AR  26262.10484360  .00000250  00000+0  28764-4 0  99932 49169  69.9993 146.7981 0002731 271.0818  89.0028 14.98331725275444

JSON: /api/v1/satellites/49169 · /tle

For live sub-satellite position, see the globe view (requires WebGL).

§ Visibility from observer

Set your observer location to see the next 7 days of passes ≥ 10°. The values pass through the URL so the page stays shareable.

No JS? Fill the form by hand. The geolocation button needs JavaScript.